GW6756 Weather Reports


time (UTC)temp
C
wind
direction
speed
KPH
gust
KPH
rain 1hr
cm
rain 24hr
cm
rain mn
cm
humidity
%
barometer
mb
20260506231937 20 149 0.0 0.0 0.00 0.25 0.25 74 1008.4
20260506231435 20 159 0.0 0.0 0.00 0.25 0.25 74 1008.5
20260506230932 20 155 1.6 3.2 0.00 0.25 0.25 73 1008.4
20260506230428 20 204 4.8 6.4 0.00 0.25 0.25 73 1008.1
20260506225925 20 188 0.0 1.6 0.00 0.25 0.25 72 1008.2
20260506225422 20 210 8.0 11.3 0.00 0.25 0.25 71 1008.2
20260506224919 20 167 4.8 4.8 0.00 0.25 0.25 70 1008.1
20260506224417 20 183 1.6 1.6 0.00 0.25 0.25 72 1008.3
20260506223913 20 204 3.2 4.8 0.00 0.25 0.25 71 1008.2
20260506223408 20 147 0.0 0.0 0.00 0.25 0.25 73 1008.1
20260506222906 20 190 1.6 3.2 0.00 0.25 0.25 71 1007.9
20260506222402 21 163 3.2 3.2 0.00 0.25 0.25 70 1008.2
20260506221859 20 207 4.8 4.8 0.00 0.25 0.25 71 1008.2
20260506221356 20 216 3.2 3.2 0.00 0.25 0.25 72 1008.2
20260506220854 20 140 1.6 3.2 0.00 0.25 0.25 73 1008.3
20260506220349 20 201 3.2 6.4 0.00 0.25 0.25 72 1008.0
20260506215846 20 136 0.0 0.0 0.00 0.25 0.25 73 1007.9
20260506215342 20 212 8.0 11.3 0.00 0.25 0.25 72 1008.0
20260506214838 21 357 6.4 9.7 0.00 0.25 0.25 70 1007.8
20260506214335 20 183 1.6 1.6 0.00 0.25 0.25 72 1007.9
20260506213833 20 147 11.3 17.7 0.00 0.25 0.25 72 1007.9
20260506213330 20 338 3.2 4.8 0.00 0.25 0.25 72 1007.9
20260506212827 20 75 1.6 1.6 0.00 0.25 0.25 73 1007.9
20260506212323 20 138 3.2 4.8 0.00 0.25 0.25 73 1007.9
20260506211818 20 110 4.8 4.8 0.00 0.25 0.25 73 1007.8
20260506211314 20 66 3.2 3.2 0.00 0.25 0.25 73 1007.6
20260506210812 20 55 8.0 12.9 0.00 0.25 0.25 72 1007.8
20260506210309 20 114 8.0 9.7 0.00 0.25 0.25 72 1007.9
20260506205806 20 167 3.2 4.8 0.00 0.25 0.25 72 1007.7
20260506205305 20 176 3.2 4.8 0.00 0.25 0.25 72 1007.7
20260506204758 20 149 6.4 12.9 0.00 0.25 0.25 72 1007.6
20260506204256 20 176 3.2 4.8 0.00 0.25 0.25 73 1007.7
20260506203754 20 18 3.2 4.8 0.00 0.25 0.25 73 1007.6
20260506203251 19 212 9.7 16.1 0.00 0.25 0.25 75 1007.6
20260506202748 18 159 1.6 1.6 0.00 0.25 0.25 75 1007.6
20260506202244 18 186 3.2 3.2 0.00 0.25 0.25 76 1007.7
20260506201741 18 124 4.8 9.7 0.00 0.25 0.25 75 1007.7
20260506201238 18 92 6.4 9.7 0.00 0.25 0.25 76 1007.7
20260506200735 19 198 3.2 4.8 0.00 0.25 0.25 75 1007.8
20260506200231 19 176 4.8 4.8 0.00 0.25 0.25 75 1007.6
20260506195728 18 166 1.6 3.2 0.00 0.25 0.25 76 1007.8
20260506195224 18 133 3.2 3.2 0.00 0.25 0.25 76 1007.8
20260506194722 18 92 1.6 3.2 0.00 0.25 0.25 76 1007.9
20260506194218 18 274 3.2 3.2 0.00 0.25 0.25 78 1007.9
20260506193716 18 216 3.2 3.2 0.00 0.25 0.25 78 1008.0
20260506193213 18 127 3.2 3.2 0.00 0.25 0.25 78 1008.2
20260506192709 17 133 3.2 3.2 0.00 0.25 0.25 79 1008.1
20260506192206 17 339 1.6 1.6 0.00 0.25 0.25 79 1008.2
20260506191703 17 242 3.2 6.4 0.00 0.25 0.25 79 1008.2
20260506191158 17 178 4.8 12.9 0.00 0.25 0.25 79 1008.4
20260506190656 17 146 6.4 9.7 0.00 0.25 0.25 79 1008.4
20260506190153 17 355 1.6 3.2 0.00 0.25 0.25 79 1008.5
20260506185650 17 212 4.8 6.4 0.00 0.25 0.25 79 1008.4
20260506185146 17 235 4.8 6.4 0.00 0.25 0.25 79 1008.5
20260506184644 17 348 3.2 4.8 0.00 0.25 0.25 79 1008.5
20260506184141 17 353 4.8 11.3 0.00 0.25 0.25 80 1008.7
20260506183637 17 253 3.2 6.4 0.00 0.25 0.25 80 1008.6
20260506183133 17 233 3.2 6.4 0.00 0.25 0.25 80 1008.6
20260506182631 17 227 3.2 4.8 0.00 0.25 0.25 80 1008.6
20260506182128 17 138 0.0 1.6 0.00 0.25 0.25 79 1008.8
20260506181626 17 128 0.0 1.6 0.00 0.25 0.25 79 1008.6
20260506181123 17 202 3.2 6.4 0.00 0.25 0.25 79 1008.6
20260506180619 17 176 4.8 9.7 0.00 0.25 0.25 79 1008.7
20260506180116 17 124 1.6 3.2 0.00 0.25 0.25 80 1008.7
20260506175612 17 331 4.8 6.4 0.00 0.25 0.25 80 1008.8
20260506175108 17 48 6.4 11.3 0.00 0.25 0.25 79 1008.7
20260506174608 17 224 3.2 3.2 0.00 0.25 0.25 80 1008.9
20260506174103 17 192 1.6 1.6 0.00 0.25 0.25 81 1009.0
20260506173601 17 217 6.4 6.4 0.00 0.25 0.25 80 1009.1
20260506173058 17 108 3.2 3.2 0.00 0.25 0.25 81 1009.0
20260506172555 17 64 8.0 11.3 0.00 0.25 0.25 80 1009.2
20260506172051 17 199 4.8 6.4 0.00 0.25 0.25 81 1009.0
20260506171549 17 315 9.7 14.5 0.00 0.25 0.25 81 1008.9
20260506171047 17 144 6.4 6.4 0.00 0.25 0.25 81 1009.0
20260506170544 17 114 3.2 3.2 0.00 0.25 0.25 84 1008.9
20260506170041 17 179 4.8 6.4 0.00 0.25 0.25 83 1009.1
20260506165539 17 10 1.6 3.2 0.00 0.25 0.25 83 1009.0
20260506165035 17 202 3.2 4.8 0.00 0.25 0.25 84 1009.0
20260506164532 17 94 1.6 1.6 0.00 0.25 0.25 85 1009.2
20260506164030 17 148 3.2 4.8 0.13 0.25 0.25 85 1009.2
20260506163525 17 206 6.4 6.4 0.13 0.25 0.25 85 1009.0
20260506163021 17 131 3.2 4.8 0.00 0.23 0.23 86 1009.2
20260506162518 16 149 0.0 1.6 0.00 0.23 0.23 86 1009.5
20260506162015 16 130 0.0 0.0 0.18 0.23 0.23 86 1010.0
20260506161513 16 119 3.2 3.2 0.30 0.23 0.23 85 1010.1
20260506161010 16 170 1.6 4.8 0.13 0.20 0.20 83 1010.2
20260506160508 17 190 4.8 4.8 0.18 0.18 0.18 83 1010.4
20260506160005 17 113 3.2 6.4 0.30 0.18 0.18 82 1010.5
20260506155503 17 136 0.0 1.6 0.13 0.15 0.15 83 1010.4
20260506153634 17 149 0.0 0.0 0.18 0.08 0.08 82 1010.4
20260506153131 17 198 1.6 3.2 0.30 0.08 0.08 81 1010.3
20260506152628 17 128 1.6 3.2 0.30 0.05 0.05 79 1010.3
20260506152126 17 135 3.2 4.8 0.18 0.03 0.03 77 1010.3
20260506151624 18 199 3.2 3.2 0.00 0.00 0.00 75 1010.5
20260506151121 18 162 1.6 1.6 0.00 0.00 0.00 74 1010.2
20260506150618 18 13 1.6 6.4 0.00 0.00 0.00 73 1010.1
20260506150115 18 138 0.0 1.6 0.00 0.00 0.00 73 1009.9
20260506145612 18 208 3.2 4.8 0.00 0.00 0.00 72 1010.1
20260506145108 18 175 6.4 6.4 0.00 0.00 0.00 72 1010.2
20260506144605 19 203 1.6 3.2 0.00 0.00 0.00 72 1010.6
20260506144102 19 157 3.2 4.8 0.00 0.00 0.00 70 1010.4
20260506143600 20 244 8.0 9.7 0.00 0.00 0.00 68 1010.3
20260506143058 20 133 1.6 1.6 0.00 0.00 0.00 67 1010.6
20260506142555 20 191 3.2 3.2 0.00 0.00 0.00 67 1010.3
20260506142054 20 100 1.6 1.6 0.00 0.00 0.00 67 1010.4
20260506141551 20 25 4.8 6.4 0.00 0.00 0.00 66 1010.3
20260506141049 20 227 6.4 6.4 0.00 0.00 0.00 66 1010.4
20260506140546 20 278 3.2 3.2 0.00 0.00 0.00 67 1010.2
20260506140044 20 159 6.4 9.7 0.00 0.00 0.00 65 1010.3
20260506135540 20 129 3.2 6.4 0.00 0.00 0.00 66 1010.2
20260506135036 20 244 6.4 6.4 0.00 0.00 0.00 66 1010.1
20260506134533 20 155 1.6 1.6 0.00 0.00 0.00 68 1010.3
20260506134029 20 170 8.0 11.3 0.00 0.00 0.00 68 1010.4
20260506133526 19 209 3.2 3.2 0.00 0.00 0.00 68 1010.3
20260506133023 19 194 8.0 11.3 0.00 0.00 0.00 68 1010.2
20260506132520 19 188 8.0 11.3 0.00 0.00 0.00 68 1010.6
20260506132018 19 142 3.2 4.8 0.00 0.00 0.00 68 1010.2
20260506131515 19 210 3.2 3.2 0.00 0.00 0.00 69 1010.6
20260506131011 19 85 3.2 4.8 0.00 0.00 0.00 69 1010.6
20260506130508 19 131 3.2 3.2 0.00 0.00 0.00 69 1010.8
20260506130006 20 161 3.2 6.4 0.00 0.00 0.00 68 1010.6
20260506125504 20 148 3.2 4.8 0.00 0.00 0.00 68 1010.6
20260506125001 20 213 1.6 1.6 0.00 0.00 0.00 68 1010.5
20260506124459 19 229 6.4 11.3 0.00 0.00 0.00 70 1010.5
20260506123957 18 315 3.2 3.2 0.00 0.00 0.00 71 1010.7
20260506123454 19 199 3.2 4.8 0.00 0.00 0.00 70 1010.5
20260506122952 19 289 6.4 9.7 0.00 0.00 0.00 70 1010.4
20260506122448 19 342 1.6 3.2 0.00 0.00 0.00 70 1010.4
20260506121947 18 258 3.2 4.8 0.00 0.00 0.00 70 1010.3
20260506121443 18 109 1.6 1.6 0.00 0.00 0.00 71 1010.3
20260506120940 18 115 6.4 11.3 0.00 0.00 0.00 71 1010.4
20260506120438 18 176 11.3 14.5 0.00 0.00 0.00 72 1010.5
20260506115935 18 183 3.2 4.8 0.00 0.00 0.00 73 1010.4
20260506115433 18 198 1.6 4.8 0.00 0.00 0.00 72 1010.4
20260506114931 18 188 3.2 4.8 0.00 0.00 0.00 72 1010.5
20260506114428 18 176 4.8 4.8 0.00 0.00 0.00 73 1010.6
20260506113927 18 196 8.0 12.9 0.00 0.00 0.00 72 1010.4
20260506113424 18 167 4.8 6.4 0.00 0.00 0.00 73 1010.5
20260506112920 18 178 0.0 1.6 0.00 0.00 0.00 73 1010.4
20260506112418 18 201 6.4 6.4 0.00 0.00 0.00 74 1010.6
20260506111915 18 80 6.4 11.3 0.00 0.00 0.00 73 1010.5
20260506111413 18 168 9.7 12.9 0.00 0.00 0.00 73 1010.7
20260506110910 18 232 3.2 4.8 0.00 0.00 0.00 73 1010.4
20260506110408 18 229 3.2 4.8 0.00 0.00 0.00 74 1010.4
20260506105904 18 131 1.6 1.6 0.00 0.00 0.00 74 1010.4
20260506105400 18 137 3.2 3.2 0.00 0.00 0.00 74 1010.2
20260506104858 17 241 4.8 6.4 0.00 0.00 0.00 74 1010.3
20260506104356 18 224 3.2 3.2 0.00 0.00 0.00 74 1010.3
20260506103853 18 186 6.4 9.7 0.00 0.00 0.00 74 1010.3
20260506103351 17 259 3.2 4.8 0.00 0.00 0.00 74 1010.3
20260506102848 17 317 1.6 3.2 0.00 0.00 0.00 74 1010.1
20260506102346 17 227 1.6 1.6 0.00 0.00 0.00 75 1010.3
20260506101843 17 231 4.8 6.4 0.00 0.00 0.00 74 1010.1
20260506101339 17 98 1.6 3.2 0.00 0.00 0.00 75 1010.1
20260506100837 17 164 1.6 1.6 0.00 0.00 0.00 75 1010.3
20260506100335 17 216 3.2 4.8 0.00 0.00 0.00 75 1010.3
20260506095833 17 247 4.8 9.7 0.00 0.00 0.00 75 1010.3
20260506095330 17 201 8.0 12.9 0.00 0.00 0.00 75 1010.2
20260506094826 17 174 4.8 6.4 0.00 0.00 0.00 75 1010.3
20260506094325 17 189 3.2 4.8 0.00 0.00 0.00 75 1009.9
20260506093823 17 250 8.0 9.7 0.00 0.00 0.00 74 1010.1
20260506093320 17 230 4.8 6.4 0.00 0.00 0.00 75 1010.1
20260506092818 17 169 4.8 4.8 0.00 0.00 0.00 75 1010.0
20260506092315 18 342 4.8 6.4 0.00 0.00 0.00 74 1009.9
20260506091812 17 242 1.6 3.2 0.00 0.00 0.00 74 1010.0
20260506091310 18 140 3.2 4.8 0.00 0.00 0.00 74 1010.0
20260506090807 18 121 6.4 9.7 0.00 0.00 0.00 74 1010.1
20260506090304 18 36 1.6 3.2 0.00 0.00 0.00 74 1010.1
20260506085801 18 169 8.0 9.7 0.00 0.00 0.00 74 1010.2
20260506085257 18 124 3.2 4.8 0.00 0.00 0.00 74 1010.4
20260506084754 18 133 1.6 1.6 0.00 0.00 0.00 75 1010.1
20260506084250 17 154 0.0 1.6 0.00 0.00 0.00 75 1010.3
20260506083747 17 138 3.2 4.8 0.00 0.00 0.00 75 1010.2
20260506083245 18 130 1.6 3.2 0.00 0.00 0.00 75 1010.4
20260506082742 18 155 1.6 3.2 0.00 0.00 0.00 75 1010.3
20260506082237 18 129 1.6 3.2 0.00 0.00 0.00 75 1010.4
20260506081736 17 287 3.2 4.8 0.00 0.00 0.00 75 1010.5
20260506081233 18 214 3.2 4.8 0.00 0.00 0.00 75 1010.5
20260506080731 18 212 3.2 4.8 0.00 0.00 0.00 74 1010.6
20260506080227 18 182 0.0 1.6 0.00 0.00 0.00 75 1010.5
20260506073211 18 2 1.6 1.6 0.00 0.00 0.00 73 1010.5
20260506072708 18 129 1.6 1.6 0.00 0.00 0.00 73 1010.6
20260506072205 19 148 1.6 3.2 0.00 0.00 0.00 72 1010.5
20260506071702 18 192 1.6 3.2 0.00 0.00 0.00 72 1010.7
20260506071200 18 136 3.2 4.8 0.00 0.00 0.00 72 1010.6
20260506070657 19 18 3.2 6.4 0.00 0.00 0.00 72 1010.5
20260506070154 18 184 3.2 3.2 0.00 0.00 0.00 72 1010.5
20260506062131 19 137 6.4 9.7 0.00 0.00 0.00 71 1010.8
20260506061627 19 164 9.7 16.1 0.00 0.00 0.00 71 1010.9
20260506061125 19 263 8.0 11.3 0.00 0.00 0.00 71 1011.0
20260506060623 19 247 4.8 4.8 0.00 0.00 0.00 71 1010.9
20260506060120 19 229 3.2 4.8 0.00 0.00 0.00 71 1010.8
20260506051052 20 83 4.8 4.8 0.00 0.00 0.00 67 1011.1
20260506050549 20 218 6.4 6.4 0.00 0.00 0.00 67 1011.2
20260506045040 20 170 4.8 6.4 0.00 0.00 0.00 67 1011.4
20260506044538 20 240 3.2 3.2 0.00 0.00 0.00 66 1011.1
20260506044034 20 167 6.4 6.4 0.00 0.00 0.00 66 1011.4
20260506043532 20 169 3.2 4.8 0.00 0.00 0.00 66 1011.2
20260506043030 20 135 3.2 6.4 0.00 0.00 0.00 66 1011.4
20260506042529 20 199 3.2 4.8 0.00 0.00 0.00 65 1011.4
20260506042027 20 286 3.2 4.8 0.00 0.00 0.00 65 1011.3
20260506041525 20 178 3.2 4.8 0.00 0.00 0.00 64 1011.2
20260506041021 20 274 4.8 9.7 0.00 0.00 0.00 64 1011.4
20260506040519 20 161 3.2 3.2 0.00 0.00 0.00 63 1011.3
20260506040015 20 223 4.8 6.4 0.00 0.00 0.00 63 1011.2
20260506035512 20 333 3.2 6.4 0.00 0.00 0.00 62 1011.2
20260506035008 20 239 3.2 4.8 0.00 0.00 0.00 62 1011.0
20260506034506 20 201 3.2 4.8 0.00 0.00 0.00 61 1011.1
20260506034003 20 149 12.9 14.5 0.00 0.00 0.00 61 1011.3
20260506033500 20 145 8.0 14.5 0.00 0.00 0.00 60 1011.1
20260506032957 20 178 4.8 6.4 0.00 0.00 0.00 61 1011.1
20260506032455 21 136 4.8 9.7 0.00 0.00 0.00 60 1011.2
20260506031950 21 188 4.8 4.8 0.00 0.00 0.00 60 1011.0
20260506031448 21 160 6.4 6.4 0.00 0.00 0.00 59 1011.2
20260506030946 21 282 4.8 9.7 0.00 0.00 0.00 59 1011.1
20260506030444 21 183 1.6 3.2 0.00 0.00 0.00 59 1011.3
20260506025940 21 112 4.8 11.3 0.00 0.00 0.00 59 1011.3
20260506025437 21 271 6.4 9.7 0.00 0.00 0.00 59 1011.1
20260506024934 20 244 3.2 6.4 0.00 0.00 0.00 59 1011.2
20260506024431 21 183 0.0 0.0 0.00 0.00 0.00 59 1011.1
20260506023926 21 31 3.2 6.4 0.00 0.00 0.00 58 1011.5
20260506023424 21 206 3.2 4.8 0.00 0.00 0.00 59 1011.2
20260506022920 21 210 1.6 3.2 0.00 0.00 0.00 59 1011.3
20260506022418 21 324 3.2 3.2 0.00 0.00 0.00 59 1011.4
20260506021915 21 82 1.6 1.6 0.00 0.00 0.00 59 1011.6
20260506021413 21 192 1.6 4.8 0.00 0.00 0.00 59 1011.3
20260506020909 21 178 4.8 4.8 0.00 0.00 0.00 58 1011.4
20260506020408 21 122 4.8 9.7 0.00 0.00 0.00 58 1011.4
20260506015904 21 79 3.2 6.4 0.00 0.00 0.00 58 1011.5
20260506015402 21 105 3.2 4.8 0.00 0.00 0.00 57 1011.3
20260506014859 21 178 3.2 3.2 0.00 0.00 0.00 57 1011.3
20260506014355 21 226 4.8 6.4 0.00 0.00 0.00 56 1011.4
20260506013852 21 211 3.2 3.2 0.00 0.00 0.00 56 1011.2
20260506013350 21 123 3.2 3.2 0.00 0.00 0.00 55 1011.1
20260506012846 22 44 4.8 6.4 0.00 0.00 0.00 54 1011.1
20260506012343 22 340 1.6 4.8 0.00 0.00 0.00 52 1011.2
20260506011840 22 137 0.0 0.0 0.00 0.00 0.00 51 1010.9
20260506011337 22 118 1.6 1.6 0.00 0.00 0.00 49 1011.1
20260506010834 22 284 1.6 3.2 0.00 0.00 0.00 49 1011.0
20260506010332 23 91 3.2 4.8 0.00 0.00 0.00 48 1010.9
20260506005829 23 158 6.4 11.3 0.00 0.00 0.00 47 1010.7
20260506005326 23 161 6.4 9.7 0.00 0.00 0.00 46 1010.9
20260506004821 23 299 4.8 6.4 0.00 0.00 0.00 46 1010.9
20260506004319 23 231 4.8 4.8 0.00 0.00 0.00 45 1010.7
20260506003815 23 107 0.0 1.6 0.00 0.00 0.00 44 1010.7
20260506003312 23 181 11.3 17.7 0.00 0.00 0.00 43 1010.6
20260506002808 24 191 1.6 1.6 0.00 0.00 0.00 42 1010.5
20260506002306 24 169 6.4 9.7 0.00 0.00 0.00 41 1010.5
20260506001800 24 239 3.2 4.8 0.00 0.00 0.00 41 1010.5
20260506001258 25 118 1.6 3.2 0.00 0.00 0.00 41 1010.4
20260506000754 25 186 9.7 16.1 0.00 0.00 0.00 41 1010.2
20260506000254 25 255 3.2 3.2 0.00 0.00 0.00 42 1010.4
20260505235749 25 242 4.8 6.4 0.00 0.00 0.00 41 1010.2
20260505235246 25 117 6.4 11.3 0.00 0.00 0.00 41 1010.2
20260505234743 25 150 1.6 1.6 0.00 0.00 0.00 43 1010.3
20260505234241 25 169 3.2 4.8 0.00 0.00 0.00 42 1010.2
20260505233737 25 176 3.2 3.2 0.00 0.00 0.00 42 1010.2
20260505233236 25 247 4.8 4.8 0.00 0.00 0.00 42 1010.3
20260505232732 25 130 4.8 6.4 0.00 0.00 0.00 41 1010.2
20260505232230 25 204 1.6 3.2 0.00 0.00 0.00 42 1009.9